WZZ199 EKCH-LHBP

Flight info

Callsign WZZ199
Flight time 1h 23m
Altitude 35000
Route SIMEG Z493 XELOL DCT PIXOR DCT DESEN DCT BILNA DCT EDEMU
Aircraft A21N/M-SDE1E2E3FGIJ1J4RWXY/LB1

Departure

Time 2026-04-26 09:14
Airport Copenhagen Kastrup Airport (EKCH)

Arrival

Time 2026-04-26 10:38
Airport Budapest Liszt Ferenc International Airport (LHBP)
Time Latitude Longitude Altitude Speed Heading
2026-04-26 08:45 55.62517 12.65575 19 ft 0 kts 23°
2026-04-26 09:03 55.62512 12.65570 19 ft 2 kts 26°
2026-04-26 09:03 55.62499 12.65559 19 ft 2 kts 23°
2026-04-26 09:03 55.62484 12.65549 19 ft 2 kts 24°
2026-04-26 09:03 55.62472 12.65539 19 ft 0 kts 24°
2026-04-26 09:04 55.62462 12.65533 19 ft 2 kts 355°
2026-04-26 09:04 55.62448 12.65543 19 ft 2 kts 315°
2026-04-26 09:04 55.62441 12.65566 19 ft 1 kts 276°
2026-04-26 09:04 55.62441 12.65576 19 ft 1 kts 263°
2026-04-26 09:05 55.62441 12.65583 19 ft 0 kts 268°
2026-04-26 09:08 55.62441 12.65578 18 ft 1 kts 268°
2026-04-26 09:08 55.62440 12.65545 18 ft 4 kts 268°
2026-04-26 09:08 55.62439 12.65474 18 ft 7 kts 268°
2026-04-26 09:08 55.62436 12.65364 18 ft 10 kts 270°
2026-04-26 09:09 55.62426 12.65227 18 ft 11 kts 230°
2026-04-26 09:09 55.62337 12.65209 18 ft 14 kts 179°
2026-04-26 09:09 55.62225 12.65188 16 ft 18 kts 201°
2026-04-26 09:09 55.62105 12.65068 15 ft 20 kts 212°
2026-04-26 09:10 55.61982 12.64929 15 ft 20 kts 214°
2026-04-26 09:10 55.61863 12.64788 15 ft 20 kts 212°
2026-04-26 09:10 55.61747 12.64653 15 ft 20 kts 214°
2026-04-26 09:10 55.61629 12.64517 15 ft 19 kts 213°
2026-04-26 09:11 55.61513 12.64384 15 ft 19 kts 213°
2026-04-26 09:11 55.61402 12.64255 16 ft 18 kts 214°
2026-04-26 09:11 55.61292 12.64127 16 ft 19 kts 212°
2026-04-26 09:11 55.61174 12.63993 15 ft 21 kts 213°
2026-04-26 09:12 55.61046 12.63844 16 ft 22 kts 214°
2026-04-26 09:12 55.60917 12.63698 17 ft 21 kts 213°
2026-04-26 09:12 55.60791 12.63598 15 ft 15 kts 166°
2026-04-26 09:12 55.60718 12.63735 15 ft 15 kts 126°
2026-04-26 09:13 55.60703 12.63907 15 ft 15 kts 56°
2026-04-26 09:13 55.60724 12.63943 15 ft 0 kts 41°
2026-04-26 09:13 55.60804 12.64072 15 ft 47 kts 41°
2026-04-26 09:13 55.61246 12.64744 15 ft 118 kts 41°
2026-04-26 09:14 55.62001 12.65927 112 ft 163 kts 40°
2026-04-26 09:14 55.62824 12.67227 775 ft 161 kts 39°
2026-04-26 09:14 55.63628 12.68560 1542 ft 159 kts 40°
2026-04-26 09:14 55.64430 12.69867 2156 ft 158 kts 38°
2026-04-26 09:15 55.65282 12.71164 2482 ft 171 kts 39°
2026-04-26 09:15 55.65909 12.73052 2753 ft 196 kts 78°
2026-04-26 09:15 55.65527 12.75482 3028 ft 222 kts 124°
2026-04-26 09:15 55.64194 12.76983 3253 ft 245 kts 168°
2026-04-26 09:16 55.62432 12.77097 3593 ft 263 kts 185°
2026-04-26 09:16 55.60550 12.76924 4075 ft 278 kts 183°
2026-04-26 09:16 55.58605 12.76899 4815 ft 283 kts 180°
2026-04-26 09:16 55.56657 12.77035 5589 ft 286 kts 178°
2026-04-26 09:17 55.54669 12.77283 6328 ft 290 kts 176°
2026-04-26 09:17 55.53318 12.77489 6824 ft 293 kts 176°
2026-04-26 09:17 55.50614 12.77952 7780 ft 299 kts 175°
2026-04-26 09:17 55.48521 12.78326 8501 ft 304 kts 175°
2026-04-26 09:18 55.46423 12.78707 9198 ft 309 kts 176°
2026-04-26 09:18 55.44272 12.79095 9890 ft 315 kts 176°
2026-04-26 09:18 55.42081 12.79487 10528 ft 320 kts 176°
2026-04-26 09:18 55.39827 12.79891 10900 ft 335 kts 176°
2026-04-26 09:19 55.37495 12.80304 11269 ft 348 kts 176°
2026-04-26 09:19 55.35099 12.81225 11792 ft 357 kts 155°
2026-04-26 09:19 55.33134 12.83787 12384 ft 355 kts 126°
2026-04-26 09:19 55.32028 12.87565 12963 ft 346 kts 98°
2026-04-26 09:20 55.31592 12.91633 13494 ft 346 kts 91°
2026-04-26 09:20 55.31238 12.95862 14044 ft 352 kts 91°
2026-04-26 09:20 55.30851 13.00120 14583 ft 358 kts 92°
2026-04-26 09:20 55.30416 13.04399 15133 ft 363 kts 93°
2026-04-26 09:21 55.29936 13.08762 15691 ft 367 kts 94°
2026-04-26 09:21 55.29435 13.13127 16232 ft 371 kts 94°
2026-04-26 09:21 55.28914 13.17558 16764 ft 374 kts 94°
2026-04-26 09:21 55.28383 13.22041 17256 ft 379 kts 94°
2026-04-26 09:22 55.27844 13.26563 17725 ft 383 kts 94°
2026-04-26 09:22 55.27296 13.31128 18221 ft 387 kts 94°
2026-04-26 09:22 55.26743 13.35720 18725 ft 390 kts 93°
2026-04-26 09:22 55.26174 13.40429 19202 ft 394 kts 93°
2026-04-26 09:23 55.25608 13.45093 19659 ft 398 kts 94°
2026-04-26 09:23 55.24722 13.49740 20087 ft 413 kts 108°
2026-04-26 09:23 55.23186 13.54093 20537 ft 425 kts 123°
2026-04-26 09:23 55.21286 13.58029 20996 ft 429 kts 127°
2026-04-26 09:24 55.19302 13.61898 21423 ft 433 kts 128°
2026-04-26 09:24 55.17277 13.65823 21857 ft 436 kts 129°
2026-04-26 09:24 55.15241 13.69812 22274 ft 439 kts 128°
2026-04-26 09:24 55.13245 13.73767 22699 ft 441 kts 128°
2026-04-26 09:25 55.11232 13.77774 23077 ft 444 kts 127°
2026-04-26 09:25 55.09186 13.81860 23468 ft 447 kts 127°
2026-04-26 09:25 55.07148 13.85935 23824 ft 451 kts 127°
2026-04-26 09:25 55.05071 13.90081 24196 ft 454 kts 127°
2026-04-26 09:26 55.03002 13.94205 24538 ft 457 kts 128°
2026-04-26 09:26 55.00920 13.98343 24897 ft 460 kts 128°
2026-04-26 09:26 54.98797 14.02556 25347 ft 460 kts 128°
2026-04-26 09:26 54.96690 14.06718 25810 ft 461 kts 128°
2026-04-26 09:27 54.94563 14.10921 26189 ft 463 kts 128°
2026-04-26 09:27 54.92365 14.15019 26530 ft 468 kts 133°
2026-04-26 09:27 54.89943 14.18755 26866 ft 472 kts 140°
2026-04-26 09:27 54.87310 14.22117 27183 ft 475 kts 144°
2026-04-26 09:28 54.84604 14.25351 27496 ft 477 kts 146°
2026-04-26 09:28 54.81852 14.28604 27824 ft 479 kts 146°
2026-04-26 09:28 54.79081 14.31907 28141 ft 481 kts 145°
2026-04-26 09:28 54.76349 14.35165 28445 ft 483 kts 146°
2026-04-26 09:29 54.73532 14.38392 28759 ft 485 kts 147°
2026-04-26 09:29 54.70701 14.41569 29054 ft 487 kts 148°
2026-04-26 09:29 54.67856 14.44751 29347 ft 490 kts 147°
2026-04-26 09:29 54.65008 14.47942 29636 ft 492 kts 147°
2026-04-26 09:30 54.62157 14.51143 29941 ft 494 kts 147°
2026-04-26 09:30 54.59271 14.54380 30248 ft 495 kts 147°
2026-04-26 09:30 54.56406 14.57593 30550 ft 497 kts 147°
2026-04-26 09:30 54.53495 14.60852 30828 ft 499 kts 148°
2026-04-26 09:31 54.50618 14.64072 31102 ft 501 kts 148°
2026-04-26 09:31 54.47692 14.67343 31381 ft 502 kts 149°
2026-04-26 09:31 54.44759 14.70606 31636 ft 504 kts 148°
2026-04-26 09:31 54.41830 14.73864 31885 ft 506 kts 149°
2026-04-26 09:32 54.38899 14.77122 32153 ft 508 kts 149°
2026-04-26 09:32 54.35923 14.80422 32422 ft 509 kts 149°
2026-04-26 09:32 54.32964 14.83701 32698 ft 510 kts 149°
2026-04-26 09:32 54.29923 14.86852 32943 ft 510 kts 153°
2026-04-26 09:33 54.26776 14.89645 33197 ft 510 kts 158°
2026-04-26 09:33 54.23557 14.92031 33503 ft 508 kts 162°
2026-04-26 09:33 54.20244 14.94072 33758 ft 508 kts 165°
2026-04-26 09:33 54.16943 14.96012 33985 ft 509 kts 165°
2026-04-26 09:34 54.13602 14.97971 34222 ft 510 kts 165°
2026-04-26 09:34 54.10241 14.99952 34481 ft 511 kts 165°
2026-04-26 09:34 54.06895 15.01938 34734 ft 511 kts 165°
2026-04-26 09:34 54.03547 15.03924 34966 ft 512 kts 165°
2026-04-26 09:35 54.00212 15.05906 35169 ft 513 kts 164°
2026-04-26 09:35 53.93467 15.09910 35240 ft 514 kts 164°
2026-04-26 09:36 53.86733 15.13901 35244 ft 514 kts 164°
2026-04-26 09:36 53.80007 15.17865 35244 ft 513 kts 164°
2026-04-26 09:37 53.73278 15.21816 35244 ft 513 kts 164°
2026-04-26 09:37 53.66569 15.25748 35244 ft 513 kts 164°
2026-04-26 09:38 53.59864 15.29660 35244 ft 513 kts 164°
2026-04-26 09:38 53.53122 15.33585 35241 ft 513 kts 164°
2026-04-26 09:39 53.46423 15.37467 35239 ft 513 kts 164°
2026-04-26 09:39 53.39729 15.41340 35237 ft 512 kts 164°
2026-04-26 09:40 53.33007 15.45214 35236 ft 512 kts 164°
2026-04-26 09:40 53.26350 15.49375 35236 ft 514 kts 159°
2026-04-26 09:41 53.19829 15.54102 35238 ft 512 kts 158°
2026-04-26 09:41 53.13317 15.58824 35233 ft 512 kts 158°
2026-04-26 09:42 53.06795 15.63531 35233 ft 512 kts 159°
2026-04-26 09:42 53.00297 15.68204 35230 ft 512 kts 160°
2026-04-26 09:43 52.93772 15.72872 35232 ft 512 kts 160°
2026-04-26 09:43 52.87249 15.77520 35229 ft 512 kts 159°
2026-04-26 09:44 52.80735 15.82159 35230 ft 512 kts 160°
2026-04-26 09:44 52.74189 15.86796 35228 ft 512 kts 160°
2026-04-26 09:45 52.67661 15.91404 35224 ft 511 kts 159°
2026-04-26 09:45 52.61161 15.95985 35221 ft 511 kts 159°
2026-04-26 09:46 52.54661 16.00547 35217 ft 511 kts 159°
2026-04-26 09:46 52.48156 16.05096 35213 ft 511 kts 159°
2026-04-26 09:47 52.41643 16.09641 35212 ft 510 kts 160°
2026-04-26 09:47 52.35128 16.14170 35213 ft 510 kts 159°
2026-04-26 09:48 52.28587 16.18699 35215 ft 511 kts 160°
2026-04-26 09:48 52.22098 16.23185 35219 ft 510 kts 160°
2026-04-26 09:49 52.15579 16.27672 35215 ft 510 kts 160°
2026-04-26 09:49 52.09062 16.32143 35215 ft 510 kts 160°
2026-04-26 09:50 52.02568 16.36581 35216 ft 510 kts 159°
2026-04-26 09:50 51.96026 16.41045 35212 ft 509 kts 160°
2026-04-26 09:51 51.89558 16.45443 35208 ft 509 kts 159°
2026-04-26 09:51 51.83019 16.49876 35214 ft 509 kts 159°
2026-04-26 09:52 51.76520 16.54263 35211 ft 509 kts 159°
2026-04-26 09:52 51.66740 16.60844 35209 ft 508 kts 159°
2026-04-26 09:53 51.60284 16.65173 35208 ft 507 kts 160°
2026-04-26 09:53 51.53780 16.69519 35209 ft 507 kts 161°
2026-04-26 09:54 51.47296 16.73840 35211 ft 506 kts 160°
2026-04-26 09:54 51.40764 16.78172 35212 ft 507 kts 160°
2026-04-26 09:55 51.34285 16.82463 35208 ft 506 kts 160°
2026-04-26 09:55 51.27783 16.86755 35208 ft 506 kts 160°
2026-04-26 09:56 51.21293 16.91029 35211 ft 506 kts 161°
2026-04-26 09:56 51.14836 16.95263 35209 ft 506 kts 160°
2026-04-26 09:57 51.08361 16.99497 35212 ft 505 kts 160°
2026-04-26 09:57 51.01854 17.03741 35211 ft 504 kts 160°
2026-04-26 09:58 50.95408 17.07929 35215 ft 504 kts 161°
2026-04-26 09:58 50.88898 17.12149 35211 ft 505 kts 160°
2026-04-26 09:59 50.83512 17.15628 35210 ft 504 kts 160°
2026-04-26 09:59 50.75938 17.20512 35209 ft 503 kts 161°
2026-04-26 10:00 50.70537 17.23980 35210 ft 503 kts 160°
2026-04-26 10:00 50.63031 17.28787 35206 ft 503 kts 160°
2026-04-26 10:01 50.56544 17.32931 35203 ft 503 kts 160°
2026-04-26 10:01 50.50057 17.37066 35200 ft 503 kts 160°
2026-04-26 10:02 50.43583 17.41178 35198 ft 503 kts 160°
2026-04-26 10:02 50.40371 17.43214 35323 ft 502 kts 160°
2026-04-26 10:02 50.37123 17.45270 35186 ft 502 kts 160°
2026-04-26 10:03 50.30682 17.49397 35187 ft 503 kts 158°
2026-04-26 10:03 50.24526 17.54385 35183 ft 504 kts 150°
2026-04-26 10:04 50.18727 17.60470 35186 ft 504 kts 145°
2026-04-26 10:04 50.12990 17.66731 35190 ft 503 kts 146°
2026-04-26 10:05 50.07274 17.72914 35314 ft 503 kts 146°
2026-04-26 10:05 50.04421 17.75983 35153 ft 502 kts 146°
2026-04-26 10:05 50.01546 17.79067 35164 ft 502 kts 147°
2026-04-26 10:06 49.95810 17.85204 35196 ft 502 kts 146°
2026-04-26 10:06 49.90066 17.91333 35202 ft 502 kts 146°
2026-04-26 10:07 49.87208 17.94377 35331 ft 502 kts 147°
2026-04-26 10:07 49.84313 17.97455 35283 ft 501 kts 147°
2026-04-26 10:07 49.78577 18.03540 35216 ft 501 kts 147°
2026-04-26 10:08 49.72879 18.09566 35198 ft 500 kts 147°
2026-04-26 10:08 49.67131 18.15626 35191 ft 501 kts 147°
2026-04-26 10:09 49.62342 18.20666 35185 ft 500 kts 147°
2026-04-26 10:09 49.55660 18.27673 35172 ft 500 kts 147°
2026-04-26 10:10 49.49952 18.33643 35162 ft 499 kts 147°
2026-04-26 10:10 49.44231 18.39613 35157 ft 499 kts 147°
2026-04-26 10:11 49.38505 18.45653 35156 ft 499 kts 144°
2026-04-26 10:11 49.32949 18.52008 35157 ft 498 kts 144°
2026-04-26 10:12 49.27439 18.58326 35163 ft 499 kts 144°
2026-04-26 10:12 49.21883 18.64680 35163 ft 498 kts 144°
2026-04-26 10:13 49.16346 18.70989 35156 ft 498 kts 145°
2026-04-26 10:13 49.10833 18.77249 35136 ft 497 kts 145°
2026-04-26 10:14 49.05292 18.83527 35122 ft 497 kts 145°
2026-04-26 10:14 48.99765 18.89773 35108 ft 497 kts 145°
2026-04-26 10:15 48.94233 18.96005 35117 ft 497 kts 145°
2026-04-26 10:15 48.91462 18.99123 34862 ft 499 kts 145°
2026-04-26 10:15 48.88669 19.02254 33987 ft 503 kts 145°
2026-04-26 10:16 48.85833 19.05432 33182 ft 506 kts 145°
2026-04-26 10:16 48.83034 19.08563 32590 ft 503 kts 145°
2026-04-26 10:16 48.80246 19.11679 32083 ft 498 kts 145°
2026-04-26 10:16 48.77471 19.14777 31569 ft 495 kts 144°
2026-04-26 10:17 48.74731 19.17829 31046 ft 491 kts 144°
2026-04-26 10:17 48.71998 19.20871 30493 ft 489 kts 144°
2026-04-26 10:17 48.69248 19.23930 29962 ft 485 kts 144°
2026-04-26 10:17 48.67482 19.25890 29620 ft 483 kts 144°
2026-04-26 10:18 48.63875 19.29892 28925 ft 479 kts 144°
2026-04-26 10:18 48.61218 19.32835 28417 ft 476 kts 144°
2026-04-26 10:18 48.58560 19.35776 27913 ft 473 kts 144°
2026-04-26 10:18 48.56792 19.37729 27570 ft 472 kts 144°
2026-04-26 10:19 48.53302 19.41578 26921 ft 468 kts 144°
2026-04-26 10:19 48.50666 19.44480 26408 ft 465 kts 144°
2026-04-26 10:19 48.48927 19.46393 26083 ft 463 kts 144°
2026-04-26 10:19 48.45495 19.50164 25406 ft 461 kts 143°
2026-04-26 10:20 48.43771 19.52055 25069 ft 459 kts 143°
2026-04-26 10:20 48.41231 19.54842 24578 ft 457 kts 143°
2026-04-26 10:20 48.37812 19.58587 23902 ft 454 kts 143°
2026-04-26 10:20 48.35283 19.61353 23417 ft 452 kts 144°
2026-04-26 10:21 48.32753 19.64116 22940 ft 450 kts 143°
2026-04-26 10:21 48.30215 19.66883 22445 ft 447 kts 144°
2026-04-26 10:21 48.27712 19.69613 21966 ft 445 kts 144°
2026-04-26 10:21 48.25255 19.72288 21485 ft 442 kts 144°
2026-04-26 10:22 48.22757 19.74998 20982 ft 441 kts 144°
2026-04-26 10:22 48.21131 19.76763 20655 ft 439 kts 144°
2026-04-26 10:22 48.17696 19.79989 19983 ft 433 kts 161°
2026-04-26 10:22 48.15768 19.80727 19665 ft 424 kts 178°
2026-04-26 10:23 48.12897 19.80545 19226 ft 408 kts 196°
2026-04-26 10:23 48.09270 19.79392 18647 ft 401 kts 200°
2026-04-26 10:23 48.06567 19.78501 18220 ft 399 kts 199°
2026-04-26 10:23 48.03838 19.77698 17794 ft 397 kts 197°
2026-04-26 10:24 48.02030 19.77215 17510 ft 395 kts 197°
2026-04-26 10:24 47.98448 19.76330 16936 ft 392 kts 196°
2026-04-26 10:24 47.96638 19.75872 16623 ft 388 kts 197°
2026-04-26 10:24 47.93168 19.74868 15564 ft 382 kts 198°
2026-04-26 10:25 47.91460 19.74354 14994 ft 379 kts 198°
2026-04-26 10:25 47.88878 19.73581 14152 ft 374 kts 198°
2026-04-26 10:25 47.86386 19.72843 13303 ft 370 kts 198°
2026-04-26 10:25 47.83883 19.72107 12454 ft 365 kts 198°
2026-04-26 10:26 47.81419 19.71385 11611 ft 361 kts 198°
2026-04-26 10:26 47.78978 19.70675 10819 ft 354 kts 198°
2026-04-26 10:26 47.75852 19.69778 10233 ft 334 kts 198°
2026-04-26 10:26 47.73661 19.69157 10108 ft 313 kts 198°
2026-04-26 10:27 47.72246 19.68752 9981 ft 314 kts 198°
2026-04-26 10:27 47.69396 19.67920 9513 ft 312 kts 198°
2026-04-26 10:27 47.67964 19.67503 9278 ft 311 kts 198°
2026-04-26 10:27 47.65873 19.66894 8946 ft 308 kts 197°
2026-04-26 10:28 47.63759 19.66283 8608 ft 306 kts 197°
2026-04-26 10:28 47.61669 19.65680 8267 ft 304 kts 197°
2026-04-26 10:28 47.59618 19.65090 7950 ft 302 kts 196°
2026-04-26 10:28 47.57555 19.64499 7618 ft 301 kts 196°
2026-04-26 10:29 47.55518 19.63914 7290 ft 299 kts 195°
2026-04-26 10:29 47.53476 19.63328 6948 ft 297 kts 195°
2026-04-26 10:29 47.51469 19.62758 6619 ft 294 kts 195°
2026-04-26 10:29 47.49445 19.62181 6274 ft 295 kts 195°
2026-04-26 10:30 47.46791 19.61422 5860 ft 292 kts 194°
2026-04-26 10:30 47.45442 19.61038 5632 ft 291 kts 195°
2026-04-26 10:30 47.43467 19.60479 5308 ft 289 kts 195°
2026-04-26 10:30 47.41487 19.59915 4963 ft 289 kts 195°
2026-04-26 10:31 47.39533 19.59358 4635 ft 287 kts 195°
2026-04-26 10:31 47.37582 19.58803 4448 ft 285 kts 195°
2026-04-26 10:31 47.35653 19.58052 4321 ft 280 kts 210°
2026-04-26 10:31 47.33644 19.55801 4012 ft 271 kts 229°
2026-04-26 10:32 47.32301 19.53903 3789 ft 268 kts 230°
2026-04-26 10:32 47.31410 19.52645 3596 ft 265 kts 230°
2026-04-26 10:32 47.30358 19.50531 3137 ft 248 kts 256°
2026-04-26 10:32 47.30349 19.47502 2964 ft 209 kts 300°
2026-04-26 10:33 47.30891 19.46378 2951 ft 193 kts 321°
2026-04-26 10:33 47.32235 19.44944 3003 ft 171 kts 325°
2026-04-26 10:33 47.32856 19.44217 3059 ft 173 kts 322°
2026-04-26 10:33 47.33736 19.43044 2877 ft 162 kts 319°
2026-04-26 10:34 47.34516 19.41919 2646 ft 153 kts 317°
2026-04-26 10:34 47.35228 19.40819 2422 ft 140 kts 315°
2026-04-26 10:34 47.35850 19.39821 2210 ft 125 kts 315°
2026-04-26 10:34 47.36595 19.38588 2015 ft 120 kts 313°
2026-04-26 10:35 47.36971 19.37973 1909 ft 119 kts 315°
2026-04-26 10:35 47.37526 19.37076 1749 ft 119 kts 313°
2026-04-26 10:35 47.38089 19.36174 1591 ft 119 kts 315°
2026-04-26 10:35 47.38848 19.34971 1391 ft 121 kts 312°
2026-04-26 10:36 47.39220 19.34349 1295 ft 121 kts 312°
2026-04-26 10:36 47.39788 19.33419 1147 ft 122 kts 312°
2026-04-26 10:36 47.40352 19.32500 982 ft 121 kts 310°
2026-04-26 10:36 47.40930 19.31579 819 ft 123 kts 314°
2026-04-26 10:37 47.41506 19.30657 673 ft 121 kts 309°
2026-04-26 10:37 47.42085 19.29756 522 ft 121 kts 307°
2026-04-26 10:37 47.42634 19.28839 420 ft 116 kts 309°
2026-04-26 10:37 47.43184 19.27945 437 ft 55 kts 311°
2026-04-26 10:38 47.43322 19.27724 445 ft 40 kts 310°
2026-04-26 10:38 47.43495 19.27447 453 ft 32 kts 313°
2026-04-26 10:38 47.43634 19.27229 460 ft 26 kts 308°
2026-04-26 10:38 47.43716 19.27019 466 ft 22 kts 292°
2026-04-26 10:39 47.43756 19.26808 472 ft 20 kts 282°
2026-04-26 10:39 47.43786 19.26604 475 ft 20 kts 282°
2026-04-26 10:39 47.43771 19.26432 476 ft 15 kts 220°
2026-04-26 10:39 47.43686 19.26352 475 ft 14 kts 192°
2026-04-26 10:40 47.43608 19.26436 475 ft 15 kts 131°
2026-04-26 10:40 47.43538 19.26550 474 ft 10 kts 133°
2026-04-26 10:40 47.43512 19.26566 473 ft 3 kts 210°
2026-04-26 10:40 47.43501 19.26557 474 ft 0 kts 213°
2026-04-26 10:41 47.43492 19.26548 474 ft 1 kts 220°
2026-04-26 10:41 47.43489 19.26543 474 ft 0 kts 221°
2026-04-26 10:41 47.43485 19.26539 474 ft 0 kts 221°
2026-04-26 10:41 47.43482 19.26535 474 ft 0 kts 221°